KAC673 OKKK-OMDB

Flight info

Callsign KAC673
Flight time 1h 15m
Altitude 37000
Route SESRU M677 VUTEB
Aircraft A320/M-SDE3FGHIRWY/LB1

Departure

Time 2026-04-25 14:09
Airport Kuwait International Airport (OKKK)

Arrival

Time 2026-04-25 15:24
Airport Dubai International Airport (OMDB)
Time Latitude Longitude Altitude Speed Heading
2026-04-25 13:38 29.22524 47.95882 160 ft 0 kts 154°
2026-04-25 13:44 29.22525 47.95882 160 ft 0 kts 154°
2026-04-25 13:51 29.22535 47.95877 160 ft 2 kts 154°
2026-04-25 13:52 29.22550 47.95868 160 ft 2 kts 156°
2026-04-25 13:52 29.22565 47.95861 160 ft 2 kts 155°
2026-04-25 13:52 29.22580 47.95852 160 ft 2 kts 154°
2026-04-25 13:52 29.22594 47.95845 160 ft 2 kts 155°
2026-04-25 13:53 29.22609 47.95836 160 ft 2 kts 107°
2026-04-25 13:53 29.22612 47.95818 160 ft 2 kts 83°
2026-04-25 13:53 29.22610 47.95800 160 ft 1 kts 66°
2026-04-25 13:53 29.22609 47.95798 160 ft 0 kts 67°
2026-04-25 13:58 29.22617 47.95817 160 ft 4 kts 65°
2026-04-25 13:58 29.22628 47.95844 160 ft 3 kts 65°
2026-04-25 13:58 29.22632 47.95854 160 ft 0 kts 65°
2026-04-25 13:59 29.22634 47.95860 160 ft 6 kts 65°
2026-04-25 13:59 29.22663 47.95928 160 ft 8 kts 64°
2026-04-25 14:00 29.22670 47.95946 160 ft 0 kts 64°
2026-04-25 14:00 29.22679 47.95969 160 ft 4 kts 65°
2026-04-25 14:00 29.22690 47.95995 160 ft 3 kts 65°
2026-04-25 14:00 29.22705 47.96031 160 ft 8 kts 64°
2026-04-25 14:01 29.22726 47.96081 160 ft 6 kts 65°
2026-04-25 14:01 29.22743 47.96122 160 ft 5 kts 65°
2026-04-25 14:01 29.22768 47.96185 160 ft 11 kts 65°
2026-04-25 14:01 29.22802 47.96268 160 ft 12 kts 65°
2026-04-25 14:02 29.22836 47.96352 160 ft 12 kts 65°
2026-04-25 14:02 29.22896 47.96393 160 ft 11 kts 351°
2026-04-25 14:02 29.22959 47.96363 160 ft 9 kts 334°
2026-04-25 14:02 29.22977 47.96352 160 ft 9 kts 334°
2026-04-25 14:03 29.23098 47.96288 160 ft 11 kts 335°
2026-04-25 14:03 29.23164 47.96253 160 ft 10 kts 335°
2026-04-25 14:03 29.23224 47.96221 160 ft 9 kts 335°
2026-04-25 14:03 29.23286 47.96189 160 ft 13 kts 335°
2026-04-25 14:04 29.23370 47.96144 160 ft 13 kts 335°
2026-04-25 14:04 29.23447 47.96103 160 ft 12 kts 335°
2026-04-25 14:04 29.23516 47.96066 160 ft 10 kts 335°
2026-04-25 14:04 29.23585 47.96029 160 ft 13 kts 335°
2026-04-25 14:05 29.23663 47.95988 160 ft 11 kts 335°
2026-04-25 14:05 29.23731 47.95952 159 ft 10 kts 335°
2026-04-25 14:05 29.23790 47.95921 159 ft 9 kts 335°
2026-04-25 14:05 29.23840 47.95897 160 ft 7 kts 347°
2026-04-25 14:06 29.23880 47.95915 159 ft 6 kts 45°
2026-04-25 14:06 29.23901 47.95961 159 ft 6 kts 64°
2026-04-25 14:06 29.23912 47.95987 158 ft 0 kts 64°
2026-04-25 14:06 29.23920 47.96006 158 ft 4 kts 64°
2026-04-25 14:07 29.23931 47.96032 158 ft 3 kts 65°
2026-04-25 14:07 29.23939 47.96052 158 ft 2 kts 65°
2026-04-25 14:07 29.23958 47.96100 158 ft 13 kts 65°
2026-04-25 14:07 29.23974 47.96181 160 ft 11 kts 117°
2026-04-25 14:08 29.23876 47.96245 160 ft 30 kts 155°
2026-04-25 14:08 29.23465 47.96466 163 ft 96 kts 154°
2026-04-25 14:08 29.22688 47.96879 163 ft 147 kts 155°
2026-04-25 14:08 29.21698 47.97417 511 ft 162 kts 153°
2026-04-25 14:09 29.20687 47.98006 1167 ft 162 kts 146°
2026-04-25 14:09 29.19884 47.98918 1722 ft 171 kts 119°
2026-04-25 14:09 29.19300 48.00199 1989 ft 192 kts 115°
2026-04-25 14:09 29.19107 48.00657 2065 ft 200 kts 115°
2026-04-25 14:10 29.18013 48.03296 2570 ft 241 kts 115°
2026-04-25 14:10 29.17255 48.05094 3114 ft 256 kts 117°
2026-04-25 14:10 29.16463 48.06942 3918 ft 262 kts 118°
2026-04-25 14:10 29.15636 48.08849 4615 ft 272 kts 118°
2026-04-25 14:11 29.15085 48.10955 5271 ft 285 kts 95°
2026-04-25 14:11 29.15059 48.13255 6020 ft 291 kts 90°
2026-04-25 14:11 29.15069 48.15564 6745 ft 297 kts 90°
2026-04-25 14:11 29.15085 48.17969 7525 ft 300 kts 90°
2026-04-25 14:12 29.15101 48.20333 8300 ft 303 kts 90°
2026-04-25 14:12 29.15112 48.22770 9083 ft 307 kts 90°
2026-04-25 14:12 29.15118 48.25232 9855 ft 311 kts 90°
2026-04-25 14:12 29.15120 48.27744 10372 ft 324 kts 90°
2026-04-25 14:13 29.15121 48.30387 10586 ft 347 kts 90°
2026-04-25 14:13 29.15121 48.33245 10831 ft 367 kts 90°
2026-04-25 14:13 29.15119 48.36199 11391 ft 374 kts 90°
2026-04-25 14:13 29.15114 48.39204 12060 ft 378 kts 90°
2026-04-25 14:14 29.15111 48.42196 12722 ft 382 kts 90°
2026-04-25 14:14 29.15112 48.45260 13378 ft 386 kts 90°
2026-04-25 14:14 29.15112 48.48357 13993 ft 391 kts 90°
2026-04-25 14:14 29.15113 48.51492 14558 ft 396 kts 90°
2026-04-25 14:15 29.15114 48.54665 15126 ft 401 kts 90°
2026-04-25 14:15 29.15113 48.55700 15300 ft 402 kts 90°
2026-04-25 14:15 29.15104 48.61087 16226 ft 410 kts 90°
2026-04-25 14:15 29.15094 48.64370 16773 ft 414 kts 90°
2026-04-25 14:16 29.15084 48.67691 17306 ft 419 kts 90°
2026-04-25 14:16 29.15074 48.71052 17835 ft 424 kts 90°
2026-04-25 14:16 29.15064 48.74444 18348 ft 428 kts 90°
2026-04-25 14:16 29.15052 48.77875 18793 ft 433 kts 90°
2026-04-25 14:17 29.15038 48.81296 19223 ft 437 kts 91°
2026-04-25 14:17 29.14922 48.84795 19648 ft 441 kts 98°
2026-04-25 14:17 29.14286 48.88233 20071 ft 442 kts 110°
2026-04-25 14:17 29.13106 48.91475 20500 ft 441 kts 122°
2026-04-25 14:18 29.11434 48.94398 20948 ft 437 kts 134°
2026-04-25 14:18 29.09378 48.96864 21388 ft 433 kts 145°
2026-04-25 14:18 29.07072 48.99101 21847 ft 434 kts 146°
2026-04-25 14:18 29.04754 49.01355 22309 ft 437 kts 146°
2026-04-25 14:19 29.02434 49.03617 22764 ft 439 kts 146°
2026-04-25 14:19 29.00103 49.05891 23210 ft 442 kts 147°
2026-04-25 14:19 28.97779 49.08156 23635 ft 443 kts 146°
2026-04-25 14:19 28.95423 49.10450 24025 ft 445 kts 146°
2026-04-25 14:20 28.93052 49.12759 24388 ft 447 kts 146°
2026-04-25 14:20 28.92284 49.13508 24504 ft 448 kts 146°
2026-04-25 14:20 28.88322 49.17357 25071 ft 451 kts 147°
2026-04-25 14:20 28.85929 49.19700 25409 ft 454 kts 146°
2026-04-25 14:21 28.83547 49.22104 25748 ft 457 kts 145°
2026-04-25 14:21 28.81178 49.24549 26065 ft 460 kts 144°
2026-04-25 14:21 28.78812 49.27019 26396 ft 462 kts 144°
2026-04-25 14:21 28.76431 49.29508 26727 ft 464 kts 145°
2026-04-25 14:22 28.74060 49.31970 27059 ft 466 kts 145°
2026-04-25 14:22 28.71647 49.34453 27383 ft 468 kts 146°
2026-04-25 14:22 28.69216 49.36933 27702 ft 470 kts 146°
2026-04-25 14:22 28.66768 49.39422 28013 ft 472 kts 146°
2026-04-25 14:23 28.64304 49.41925 28265 ft 475 kts 146°
2026-04-25 14:23 28.61901 49.44463 28529 ft 482 kts 141°
2026-04-25 14:23 28.59747 49.47451 28796 ft 494 kts 131°
2026-04-25 14:23 28.57912 49.50811 29062 ft 500 kts 128°
2026-04-25 14:24 28.56110 49.54219 29339 ft 502 kts 128°
2026-04-25 14:24 28.54322 49.57592 29621 ft 503 kts 128°
2026-04-25 14:24 28.52502 49.61014 29890 ft 505 kts 128°
2026-04-25 14:24 28.50671 49.64450 30183 ft 505 kts 128°
2026-04-25 14:25 28.48872 49.67824 30506 ft 504 kts 128°
2026-04-25 14:25 28.47047 49.71241 30799 ft 504 kts 128°
2026-04-25 14:25 28.45214 49.74664 31101 ft 504 kts 128°
2026-04-25 14:25 28.44621 49.75770 31203 ft 504 kts 128°
2026-04-25 14:26 28.41166 49.80968 31756 ft 487 kts 142°
2026-04-25 14:26 28.38661 49.83522 32041 ft 477 kts 151°
2026-04-25 14:26 28.35949 49.85660 32279 ft 473 kts 155°
2026-04-25 14:26 28.33205 49.87737 32530 ft 474 kts 155°
2026-04-25 14:27 28.30494 49.89792 32788 ft 475 kts 154°
2026-04-25 14:27 28.27734 49.91888 33050 ft 476 kts 154°
2026-04-25 14:27 28.24973 49.93988 33319 ft 477 kts 154°
2026-04-25 14:27 28.22213 49.96090 33578 ft 477 kts 154°
2026-04-25 14:28 28.19481 49.98169 33829 ft 478 kts 154°
2026-04-25 14:28 28.16702 50.00280 34049 ft 479 kts 154°
2026-04-25 14:28 28.13926 50.02385 34248 ft 481 kts 154°
2026-04-25 14:28 28.11137 50.04495 34464 ft 481 kts 154°
2026-04-25 14:29 28.08373 50.06583 34670 ft 482 kts 154°
2026-04-25 14:29 28.06480 50.08010 34810 ft 483 kts 155°
2026-04-25 14:29 28.03703 50.10102 35005 ft 484 kts 155°
2026-04-25 14:29 28.00898 50.12219 35183 ft 485 kts 154°
2026-04-25 14:30 27.99031 50.13632 35297 ft 486 kts 154°
2026-04-25 14:30 27.92417 50.18633 35701 ft 489 kts 154°
2026-04-25 14:30 27.89611 50.20751 35893 ft 489 kts 154°
2026-04-25 14:31 27.86775 50.22889 36106 ft 489 kts 154°
2026-04-25 14:31 27.83937 50.25026 36294 ft 490 kts 154°
2026-04-25 14:31 27.81086 50.27166 36423 ft 491 kts 154°
2026-04-25 14:31 27.78228 50.29306 36565 ft 492 kts 154°
2026-04-25 14:32 27.75397 50.31425 36723 ft 493 kts 154°
2026-04-25 14:32 27.72536 50.33568 36895 ft 494 kts 154°
2026-04-25 14:32 27.66775 50.37887 36961 ft 497 kts 154°
2026-04-25 14:33 27.61028 50.42204 36974 ft 500 kts 154°
2026-04-25 14:33 27.55281 50.46609 36964 ft 498 kts 153°
2026-04-25 14:34 27.49592 50.51005 36964 ft 497 kts 153°
2026-04-25 14:34 27.43860 50.55408 36962 ft 497 kts 153°
2026-04-25 14:35 27.38155 50.59764 36969 ft 497 kts 154°
2026-04-25 14:35 27.32404 50.64134 36973 ft 498 kts 154°
2026-04-25 14:36 27.26695 50.68474 36961 ft 498 kts 153°
2026-04-25 14:36 27.20949 50.72860 36961 ft 498 kts 153°
2026-04-25 14:37 27.15274 50.77285 36966 ft 503 kts 148°
2026-04-25 14:37 27.10163 50.82798 36966 ft 510 kts 141°
2026-04-25 14:38 27.05187 50.88439 36942 ft 511 kts 141°
2026-04-25 14:38 27.00277 50.94243 36955 ft 517 kts 133°
2026-04-25 14:39 26.96309 51.01056 36954 ft 522 kts 126°
2026-04-25 14:39 26.92509 51.07949 36938 ft 522 kts 126°
2026-04-25 14:40 26.88677 51.14886 36942 ft 523 kts 124°
2026-04-25 14:40 26.85786 51.22361 36945 ft 530 kts 110°
2026-04-25 14:41 26.83447 51.30211 36944 ft 530 kts 110°
2026-04-25 14:41 26.81099 51.38067 36961 ft 530 kts 111°
2026-04-25 14:42 26.79132 51.44586 36942 ft 530 kts 110°
2026-04-25 14:42 26.76392 51.53682 36952 ft 529 kts 110°
2026-04-25 14:43 26.74048 51.61458 36960 ft 529 kts 111°
2026-04-25 14:43 26.71695 51.69270 36960 ft 528 kts 110°
2026-04-25 14:44 26.69384 51.77027 36964 ft 528 kts 110°
2026-04-25 14:44 26.67046 51.84816 36949 ft 527 kts 110°
2026-04-25 14:45 26.64685 51.92594 36949 ft 526 kts 111°
2026-04-25 14:45 26.62222 52.00260 36945 ft 525 kts 112°
2026-04-25 14:46 26.59667 52.07923 36953 ft 525 kts 113°
2026-04-25 14:46 26.57133 52.15575 36949 ft 524 kts 112°
2026-04-25 14:47 26.55055 52.21940 36933 ft 524 kts 112°
2026-04-25 14:47 26.52166 52.30840 36939 ft 523 kts 112°
2026-04-25 14:48 26.49678 52.38427 36936 ft 522 kts 112°
2026-04-25 14:48 26.47152 52.46052 36930 ft 522 kts 112°
2026-04-25 14:49 26.44650 52.53619 36938 ft 522 kts 113°
2026-04-25 14:49 26.42140 52.61223 36926 ft 521 kts 112°
2026-04-25 14:50 26.39628 52.68820 36929 ft 521 kts 112°
2026-04-25 14:50 26.37127 52.76351 36929 ft 521 kts 112°
2026-04-25 14:51 26.34601 52.83934 36935 ft 520 kts 112°
2026-04-25 14:51 26.32094 52.91458 36937 ft 520 kts 112°
2026-04-25 14:52 26.29567 52.99021 36923 ft 520 kts 112°
2026-04-25 14:52 26.27455 53.05304 36929 ft 519 kts 112°
2026-04-25 14:53 26.24496 53.14128 36641 ft 520 kts 113°
2026-04-25 14:53 26.23239 53.17883 35433 ft 525 kts 114°
2026-04-25 14:53 26.21966 53.21680 34399 ft 520 kts 115°
2026-04-25 14:54 26.20708 53.25430 33325 ft 513 kts 115°
2026-04-25 14:54 26.19458 53.29140 32086 ft 509 kts 115°
2026-04-25 14:54 26.18219 53.32807 31412 ft 501 kts 115°
2026-04-25 14:54 26.16916 53.36407 31136 ft 501 kts 117°
2026-04-25 14:55 26.15506 53.39973 30925 ft 502 kts 119°
2026-04-25 14:55 26.14053 53.43454 30906 ft 501 kts 120°
2026-04-25 14:55 26.12564 53.46951 30549 ft 499 kts 120°
2026-04-25 14:55 26.11087 53.50437 29918 ft 495 kts 120°
2026-04-25 14:56 26.09635 53.53911 29232 ft 491 kts 119°
2026-04-25 14:56 26.08220 53.57352 28584 ft 486 kts 118°
2026-04-25 14:56 26.06848 53.60729 27981 ft 481 kts 118°
2026-04-25 14:56 26.05480 53.64120 27420 ft 476 kts 118°
2026-04-25 14:57 26.04129 53.67470 26851 ft 471 kts 118°
2026-04-25 14:57 26.02789 53.70782 26279 ft 467 kts 118°
2026-04-25 14:57 26.01456 53.74056 25762 ft 462 kts 118°
2026-04-25 14:57 26.00152 53.77252 25265 ft 456 kts 117°
2026-04-25 14:58 25.98867 53.80466 24758 ft 451 kts 117°
2026-04-25 14:58 25.97616 53.83651 24238 ft 447 kts 116°
2026-04-25 14:58 25.96386 53.86812 23721 ft 443 kts 116°
2026-04-25 14:58 25.95170 53.89942 23171 ft 439 kts 116°
2026-04-25 14:59 25.93960 53.93048 22582 ft 434 kts 116°
2026-04-25 14:59 25.92758 53.96115 22057 ft 430 kts 116°
2026-04-25 14:59 25.91559 53.99137 21539 ft 425 kts 117°
2026-04-25 14:59 25.90331 54.02060 21044 ft 420 kts 118°
2026-04-25 15:00 25.89468 54.04020 20699 ft 417 kts 120°
2026-04-25 15:00 25.87748 54.07822 20040 ft 412 kts 120°
2026-04-25 15:00 25.86462 54.10644 19581 ft 407 kts 120°
2026-04-25 15:00 25.85191 54.13446 19130 ft 403 kts 120°
2026-04-25 15:01 25.83958 54.16190 18707 ft 399 kts 120°
2026-04-25 15:01 25.82731 54.18947 18270 ft 395 kts 119°
2026-04-25 15:01 25.81621 54.21742 17789 ft 394 kts 112°
2026-04-25 15:01 25.80738 54.24611 17284 ft 391 kts 111°
2026-04-25 15:02 25.79870 54.27426 16796 ft 388 kts 111°
2026-04-25 15:02 25.78997 54.30251 16323 ft 385 kts 111°
2026-04-25 15:02 25.78126 54.33058 15860 ft 383 kts 111°
2026-04-25 15:02 25.77259 54.35848 15405 ft 380 kts 111°
2026-04-25 15:03 25.76395 54.38623 14961 ft 378 kts 111°
2026-04-25 15:03 25.75542 54.41362 14518 ft 375 kts 111°
2026-04-25 15:03 25.74691 54.44091 14093 ft 372 kts 111°
2026-04-25 15:03 25.73856 54.46764 13669 ft 369 kts 111°
2026-04-25 15:04 25.73016 54.49454 13167 ft 367 kts 110°
2026-04-25 15:04 25.72183 54.52123 13007 ft 366 kts 110°
2026-04-25 15:04 25.71346 54.54806 13032 ft 368 kts 110°
2026-04-25 15:04 25.70504 54.57502 13032 ft 368 kts 110°
2026-04-25 15:05 25.69673 54.60159 13027 ft 369 kts 110°
2026-04-25 15:05 25.68828 54.62834 12813 ft 365 kts 111°
2026-04-25 15:05 25.67978 54.65491 12297 ft 364 kts 111°
2026-04-25 15:06 25.66293 54.70712 11525 ft 353 kts 111°
2026-04-25 15:06 25.65481 54.73231 11404 ft 341 kts 111°
2026-04-25 15:06 25.64695 54.75669 11276 ft 330 kts 110°
2026-04-25 15:06 25.63936 54.78030 11128 ft 320 kts 110°
2026-04-25 15:07 25.63197 54.80320 10940 ft 313 kts 110°
2026-04-25 15:07 25.62466 54.82580 10638 ft 310 kts 110°
2026-04-25 15:07 25.61738 54.84828 10315 ft 308 kts 110°
2026-04-25 15:07 25.61003 54.87056 10057 ft 307 kts 112°
2026-04-25 15:08 25.60204 54.89225 10025 ft 307 kts 114°
2026-04-25 15:08 25.59351 54.91401 10026 ft 308 kts 115°
2026-04-25 15:08 25.58483 54.93573 10027 ft 308 kts 115°
2026-04-25 15:08 25.57615 54.95746 10021 ft 308 kts 115°
2026-04-25 15:09 25.56750 54.97924 10019 ft 308 kts 114°
2026-04-25 15:09 25.55892 55.00104 10026 ft 308 kts 114°
2026-04-25 15:09 25.54097 55.04369 9774 ft 303 kts 121°
2026-04-25 15:10 25.53032 55.06402 9641 ft 305 kts 121°
2026-04-25 15:10 25.51973 55.08443 9520 ft 305 kts 121°
2026-04-25 15:10 25.49875 55.12503 9269 ft 305 kts 121°
2026-04-25 15:11 25.48820 55.14544 9144 ft 304 kts 121°
2026-04-25 15:11 25.47765 55.16580 9017 ft 304 kts 121°
2026-04-25 15:11 25.46711 55.18609 8901 ft 303 kts 121°
2026-04-25 15:12 25.44136 55.22222 8646 ft 300 kts 133°
2026-04-25 15:12 25.42733 55.23945 8532 ft 300 kts 133°
2026-04-25 15:12 25.41337 55.25663 8398 ft 299 kts 133°
2026-04-25 15:12 25.40867 55.26241 8361 ft 299 kts 133°
2026-04-25 15:13 25.39025 55.28508 8197 ft 298 kts 133°
2026-04-25 15:13 25.35900 55.32292 8023 ft 270 kts 140°
2026-04-25 15:13 25.34343 55.33439 7884 ft 269 kts 153°
2026-04-25 15:14 25.33244 55.34087 7632 ft 269 kts 154°
2026-04-25 15:14 25.31048 55.35370 7128 ft 269 kts 154°
2026-04-25 15:14 25.29930 55.36021 6891 ft 268 kts 154°
2026-04-25 15:14 25.28296 55.36972 6549 ft 268 kts 154°
2026-04-25 15:15 25.26645 55.37934 6204 ft 267 kts 154°
2026-04-25 15:15 25.25020 55.38881 6019 ft 259 kts 154°
2026-04-25 15:15 25.23465 55.39790 6003 ft 247 kts 154°
2026-04-25 15:15 25.21952 55.40675 6004 ft 245 kts 154°
2026-04-25 15:16 25.20462 55.41547 6007 ft 245 kts 154°
2026-04-25 15:16 25.18955 55.42431 6007 ft 245 kts 154°
2026-04-25 15:16 25.15957 55.44183 5479 ft 243 kts 154°
2026-04-25 15:17 25.12990 55.45913 4899 ft 241 kts 154°
2026-04-25 15:17 25.11561 55.46887 4602 ft 242 kts 140°
2026-04-25 15:17 25.10452 55.48279 4314 ft 241 kts 121°
2026-04-25 15:18 25.09580 55.49859 4015 ft 239 kts 120°
2026-04-25 15:18 25.08915 55.53257 3471 ft 229 kts 66°
2026-04-25 15:18 25.09648 55.54774 3198 ft 226 kts 53°
2026-04-25 15:19 25.10745 55.55961 2896 ft 219 kts 23°
2026-04-25 15:19 25.11699 55.56267 2721 ft 214 kts
2026-04-25 15:19 25.13613 55.55953 2493 ft 204 kts 335°
2026-04-25 15:19 25.14761 55.55114 2372 ft 198 kts 315°
2026-04-25 15:20 25.15573 55.53914 2238 ft 193 kts 303°
2026-04-25 15:20 25.16243 55.52707 2151 ft 173 kts 303°
2026-04-25 15:20 25.16842 55.51630 2066 ft 156 kts 303°
2026-04-25 15:20 25.17394 55.50639 2028 ft 145 kts 303°
2026-04-25 15:21 25.17910 55.49712 1981 ft 142 kts 303°
2026-04-25 15:21 25.18422 55.48793 1856 ft 139 kts 303°
2026-04-25 15:21 25.18928 55.47886 1694 ft 138 kts 303°
2026-04-25 15:21 25.19438 55.46980 1549 ft 139 kts 303°
2026-04-25 15:22 25.19937 55.46065 1374 ft 139 kts 303°
2026-04-25 15:22 25.20424 55.45151 1198 ft 137 kts 302°
2026-04-25 15:22 25.20917 55.44263 1015 ft 136 kts 303°
2026-04-25 15:22 25.21424 55.43368 874 ft 137 kts 302°
2026-04-25 15:23 25.21923 55.42464 731 ft 138 kts 301°
2026-04-25 15:23 25.22441 55.41561 514 ft 139 kts 302°
2026-04-25 15:23 25.22930 55.40669 310 ft 136 kts 302°
2026-04-25 15:23 25.23429 55.39775 135 ft 137 kts 302°
2026-04-25 15:24 25.23912 55.38904 33 ft 123 kts 302°
2026-04-25 15:24 25.24278 55.38250 30 ft 75 kts 302°
2026-04-25 15:24 25.24463 55.37914 22 ft 34 kts 301°
2026-04-25 15:24 25.24545 55.37766 16 ft 31 kts 301°
2026-04-25 15:25 25.24612 55.37522 13 ft 22 kts 275°
2026-04-25 15:25 25.24619 55.37352 13 ft 22 kts 272°
2026-04-25 15:25 25.24652 55.37214 28 ft 18 kts 299°
2026-04-25 15:25 25.24731 55.37072 23 ft 23 kts 294°
2026-04-25 15:26 25.24818 55.36912 19 ft 26 kts 298°
2026-04-25 15:26 25.24866 55.36737 26 ft 23 kts 280°
2026-04-25 15:26 25.24939 55.36572 25 ft 25 kts 301°
2026-04-25 15:26 25.25034 55.36400 20 ft 27 kts 301°
2026-04-25 15:27 25.25134 55.36219 18 ft 28 kts 301°
2026-04-25 15:27 25.25236 55.36033 15 ft 29 kts 302°
2026-04-25 15:27 25.25402 55.35737 11 ft 24 kts 301°
2026-04-25 15:28 25.25491 55.35573 12 ft 25 kts 301°
2026-04-25 15:28 25.25584 55.35406 14 ft 25 kts 302°
2026-04-25 15:28 25.25676 55.35243 18 ft 25 kts 302°
2026-04-25 15:28 25.25767 55.35079 21 ft 25 kts 300°
2026-04-25 15:29 25.25854 55.34915 23 ft 25 kts 302°
2026-04-25 15:29 25.25944 55.34753 25 ft 25 kts 300°
2026-04-25 15:29 25.26032 55.34593 26 ft 24 kts 302°
2026-04-25 15:29 25.26102 55.34466 27 ft 11 kts 301°
2026-04-25 15:30 25.26146 55.34388 27 ft 13 kts 302°
2026-04-25 15:30 25.26196 55.34298 27 ft 15 kts 301°
2026-04-25 15:30 25.26249 55.34201 27 ft 10 kts 301°
2026-04-25 15:30 25.26239 55.34153 28 ft 6 kts 198°
2026-04-25 15:31 25.26198 55.34145 28 ft 8 kts 188°
2026-04-25 15:31 25.26145 55.34136 28 ft 7 kts 190°
2026-04-25 15:31 25.26098 55.34129 28 ft 6 kts 186°
2026-04-25 15:31 25.26067 55.34125 28 ft 0 kts 186°